Volver al catálogo

CZ-6A DEB

ActivoSSO
NORAD 54989·DEBRIS·🇨🇳 China

Lanzado Nov 11, 2022 desde Taiyuan Satellite Launch Center

Loading…

Próximos Pases (próximas 24 horas)

TLE

ActualizadoSource: Space-Track

Época: Sep 14, 2026, 18:47 UTC

1 54989U 22151UE  26257.78302966  .00000732  00000-0  32690-3 0  9994
2 54989  98.7543 277.7452 0068822  83.0848 277.8153 14.24459417198095

Sigue CZ-6A DEB en tiempo real con AllMySat

Download on the App Store